Regional Weather Roundup
Issued by NWS Sioux Falls, SD

Home | Current Version | Previous Version | Graphics & Text | Print | Product List | Glossary On
Versions: 1 2 3 4 5 6 7 8 9 10 11 12 13 14 15 16 17 18 19 20 21 22 23 24 25 26 27 28 29 30 31 32 33 34 35 36 37 38 39 40 41 42 43 44 45 46 47 48 49 50
000
ASUS43 KFSD 201102
RWRFSD

WEATHER ROUNDUP FOR SE SOUTH DAKOTA/SW MINNESOTA/NW IOWA
NATIONAL WEATHER SERVICE SIOUX FALLS SD
500 AM CST SAT DEC 20 2014

NOTE: "FAIR" INDICATES FEW OR NO CLOUDS BELOW 12,000 FEET WITH NO
SIGNIFICANT WEATHER AND OR OBSTRUCTIONS TO VISIBILITY.


SDZ038>040-050-052>070-201200-
SOUTHEAST SOUTH DAKOTA

CITY           SKY/WX    TMP DP  RH WIND       PRES   REMARKS
CHAMBERLAIN    NOT AVBL
HURON          FOG       26  25  96 S7        30.02F VSB 1/2 WCI  18
MADISON        CLOUDY    28  28 100 S14       30.02F WCI  17
MITCHELL       FOG       26  25  96 S8        30.04F VSB 1/2 WCI  18
SIOUX FALLS    CLOUDY    31  29  92 S7        30.05F WCI  24
WINNER         FAIR      26  17  68 CALM      29.96F
YANKTON        CLOUDY    30  28  93 CALM      30.06S
$$

MNZ071-072-080-081-089-090-097-098-201200-
SOUTHWEST MINNESOTA

CITY           SKY/WX    TMP DP  RH WIND       PRES   REMARKS
FAIRMONT       CLOUDY    28  25  86 S12       30.10F WCI  18
JACKSON        CLOUDY    30  28  93 S9        30.09S WCI  22
LUVERNE        CLOUDY    32  30  93 S7        30.07S FOG     WCI  26
MARSHALL       CLOUDY    30  27  86 SW16      30.07S WCI  19
MONTEVIDEO     CLOUDY    30  30 100 SW8       30.09R FOG     WCI  23
PIPESTONE      CLOUDY    30  28  93 SW5       30.04S FOG     WCI  25
REDWOOD FALLS  CLOUDY    31  28  89 S10       30.09F WCI  22
TRACY          CLOUDY    32  30  91 SW10      30.07S WCI  24
WINDOM         CLOUDY    30  28  93 S7        30.08S FOG     WCI  23
WORTHINGTON    CLOUDY    28  28 100 S10       30.08R WCI  19
$$

IAZ001>003-012>014-020>022-031-032-NEZ013-014-SDZ071-201200-
NORTHWEST IOWA

CITY           SKY/WX    TMP DP  RH WIND       PRES   REMARKS
DENISON        CLOUDY    30  30 100 S9        30.09F FOG     WCI  22
ESTHERVILLE    CLOUDY    28  26  92 S12       30.09F WCI  18
SIOUX CITY     CLOUDY    32  30  92 S9        30.10S FOG     WCI  24
SPENCER        CLOUDY    30  27  88 S10       30.10F FOG     WCI  21
$$

ABBREVIATIONS USED IN REMARKS
   TC - TEMPERATURE IN CELSIUS
  WCI - WIND CHILL INDEX
   HX - HEAT INDEX
  VSB - VISIBILITY



USA.gov is the U.S. government's official web portal to all federal, state and local government web resources and services.